sat.trackr.live / text

‹ back to catalog

DAMPE

NORAD 41173 · 2015-078A

PAYLOAD ACTIVE UNKNOWN

§ Identity

Operator
Country
PRC
Launch date
2015-12-17
Launch site
JSC
Launch vehicle
Mass (kg)
RCS (m²)
1.58

Purposes: science

External: N2YO · Heavens-Above · Gunter

§ Orbital elements

Epoch: 2026-05-25T03:48:02.846592Z

Period
94.07 min
Inclination
97.4566°
Eccentricity
0.0012615
Mean motion
15.30716381 rev/d
Perigee alt
465.0 km
Apogee alt
482.3 km
Semi-major
6,851.8 km
B*
2.8920e-5
RAAN
150.5141°
Arg perigee
150.2405°
Mean anomaly
209.9555°
Rev number
58,102

§ Raw data

DAMPE1 41173U 15078A   26145.15836628  .00000782  00000+0  28920-4 0  99952 41173  97.4566 150.5141 0012615 150.2405 209.9555 15.30716381581020

JSON: /api/v1/satellites/41173 · /tle

For live sub-satellite position, see the globe view (requires WebGL).

§ Visibility from observer

Set your observer location to see the next 7 days of passes ≥ 10°. The values pass through the URL so the page stays shareable.

No JS? Fill the form by hand. The geolocation button needs JavaScript.

§ Radio — SatNOGS DB

ModeDescriptionDownlinkUplink
FM S-band telemetry 2.227 GHz

1 transmitter · refreshed weekly from db.satnogs.org